Regional Weather Roundup
Issued by NWS

Home | Current Version | Previous Version | Text Only | Print | Product List | Glossary Off
Versions: 1 2 3 4 5 6 7 8 9 10 11 12 13 14 15 16 17 18 19 20 21 22 23 24 25 26 27 28 29 30 31 32 33 34 35 36 37 38 39 40 41 42 43 44 45 46 47 48 49 50

000
ASUS43 KLMK 242310
RWRKY
KENTUCKY REGIONAL WEATHER ROUNDUP
NATIONAL WEATHER SERVICE LOUISVILLE KY
700 PM EDT SUN SEP 24 2017

NOTE "FAIR" INDICATES FEW OR NO CLOUDS BELOW 12,000 FEET
WITH NO SIGNIFICANT WEATHER AND/OR OBSTRUCTIONS TO VISIBILITY.

KYZ001>023-026-027-061>063-070>075-250000-
WESTERN AND SOUTH CENTRAL KENTUCKY

CITY           SKY/WX    TMP DP  RH WIND       PRES   REMARKS
PADUCAH        CLOUDY    80  66  62 W13       29.98R
HENDERSON      CLEAR     87  62  43 SE5       29.98R
OWENSBORO      CLEAR     87  67  51 E6        29.99R HX  90
HOPKINSVILLE   PTCLDY    80  70  71 SE3       29.99S
BOWLING GREEN  PTCLDY    82  73  74 CALM      30.01R
GLASGOW        MOCLDY    77  66  69 CALM      30.02S
$$

KYZ024-025-028>034-038-045-046-053-250000-
NORTH CENTRAL KENTUCKY

CITY           SKY/WX    TMP DP  RH WIND       PRES   REMARKS
LOUISVILLE/SDF MOCLDY    87  58  37 E8        30.00S
LOUISVILLE/LOU PTCLDY    84  59  42 E6        30.01S
FORT KNOX      PTCLDY    83  62  49 E5        30.00R
$$

KYZ035>037-039>044-047>052-055>060-089>105-250000-
NORTHEAST KENTUCKY

CITY           SKY/WX    TMP DP  RH WIND       PRES   REMARKS
LEXINGTON      CLEAR     83  61  47 SE5       30.05S
COVINGTON      PTCLDY    79  55  43 SE6       30.05S
FRANKFORT      CLEAR     82  57  42 E3        30.03S
$$

KYZ054-064>069-076>088-106>120-250000-
SOUTHEAST KENTUCKY

CITY           SKY/WX    TMP DP  RH WIND       PRES   REMARKS
JACKSON        CLEAR     77  59  53 CALM      30.07S
LONDON         CLEAR     82  63  52 CALM      30.05S
SOMERSET       CLEAR     81  63  54 CALM      30.05S
MIDDLESBORO    CLEAR     78  64  61 W3        30.06R
MONTICELLO     CLEAR     78  68  71 E5        30.06R
$$





USA.gov is the U.S. government's official web portal to all federal, state and local government web resources and services.